SKYSAT 2

导读

SKYSAT 2是美国发射的高分辨率遥感卫星,于2014年7月8日发射入轨,隶属于SkySat系列卫星星座。该卫星主要承担对地观测任务,可提供亚米级分辨率的光学遥感影像,服务于城市规划、灾害监测、资源勘探以及地理信息测绘等领域。作为商业遥感卫星领域的代表性项目,它凭借高成像精度,为全球用户提供了高质量的空间地理数据支持,推动了商业遥感应用的发展。

Basic Information
目录编号:
40072
目录名称:
SKYSAT 2
国际标识:
2014-037D
轨道中心:
EARTH
卫星名称:
SKYSAT 2
卫星全名:
--
卫星状态:
在轨 (已飞行4449 天)
发射日期:
2014-07-08 UTC
国别 :
美国 (US)
星等 :
--
This satellite is enrolled in the Space Conjunction Data Service (SCDS) and the current flight risk assessment level is: No High Risk
Orbit Information
数据来源 国际轨道数据 AOE轨道数据
星历时间 2026-09-12T03:07:27+0800
11小时前
查看轨道信息
2026-09-09T06:00:00+0800
3天前
查看轨道信息
半长轴 6981.665km 6981.684km
偏心率 0.0005764 0.0005991
轨道倾角 98.394° 98.393°
近地点辐角 11.285° 19.673°
升交点赤经 218.752° 215.703°
平近点角 348.850° 39.157°
近地点 599.503km 599.364km
远地点 607.553km 607.73km
周期 96.761分钟 96.761分钟
每日圈数 14.882103 14.882042
Detailed Information
使用方式:
暂无
2D Orbit Map
3D Orbit Map
Orbit Altitude Analysis Chart
Orbit Inclination Analysis Chart
Orbit Comprehensive Analysis Chart
View Comprehensive Chart
Conjunction Data List
Event ID Objects TCA Miss Dist (km) Collision Risk Probability Collision Risk Index (CRI) Action
CDM_260914-051302-227604-007222
SKYSAT 2 (40072)
2026-09-14T
05:13:18+0000
2.049 km
极远距离
2.480964E-6 低风险 0.43
CDM_260912-155701-277304-007222
SKYSAT 2 (40072)
2026-09-12T
15:57:03+0000
2.076 km
极远距离
9.026951E-7 极低风险 0.34
Miss Distance Evolution Trend with All Objects
Collision Probability Evolution Trend with All Objects